Temp
53 53 53 52 52 53 53 53 53 53 53 53 53 53 53 52 52 51 51 50 50 51
51 51 51 51 52 52 52 52 52 52 52 52 52 52 52 51 51 51 50 50 49 50
51 51 50 50 50 50 50 51 50 50 50 50 50 50 50 50 49 49 49 48 48 48
49 49 49 48 48 48 49 49 49 49 48 48 48 49 49 48 47 47 46 47 47 46
46 47 47 46 46 47 46 47 47 47 47 46 46 47 47 46 46 46 45 44 45 44
45 45 44 44 44 45 45 45 45 46 45 45 45 45 45 45 44 44 43 43 43 43
43 43 43 43 43 43 44 43 43 43 43 43 44 44 44 43 43 43 43 42 42 42
41 41 42 41 41 41 42 41 41 41 41 42 44 45 43 42 42 41 41 41 41 42
39 40 39 40 39 39 39 39 39 39 39 40 43 45 45 43 41 40 39 39 39 40
38 38 38 38 38 37 37 38 37 37 38 38 40 44 44 44 40 39 38 38 38 38
37 36 37 37 36 36 37 36 36 36 36 37 39 42 43 42 39 39 38 38 38 37
37 36 36 35 35 35 35 35 36 36 36 36 37 40 41 40 38 38 38 38 38 38
36 36 35 35 34 34 35 35 36 35 34 36 35 37 40 41 38 37 37 37 37 38
35 34 34 34 34 34 34 34 33 34 34 34 34 35 39 40 38 37 36 36 36 38
MSLP
1018.12 1018.76 1019.41 1019.99 1020.56 1021.04 1021.46 1021.89 1022.36 1022.72 1023.10 1023.45 1023.78 1023.95 1024.17 1024.37 1024.55 1024.78 1025.05 1025.30 1025.53 1025.68
1018.01 1018.70 1019.36 1020.03 1020.50 1021.00 1021.38 1021.82 1022.34 1022.76 1023.21 1023.58 1023.86 1024.11 1024.26 1024.44 1024.67 1024.88 1025.22 1025.51 1025.71 1025.82
1017.93 1018.62 1019.35 1020.04 1020.60 1021.07 1021.50 1021.90 1022.44 1023.00 1023.40 1023.79 1024.14 1024.37 1024.39 1024.68 1024.97 1025.11 1025.52 1025.77 1025.89 1026.03
1018.21 1018.84 1019.53 1020.19 1020.77 1021.24 1021.76 1022.21 1022.68 1023.18 1023.63 1024.08 1024.46 1024.69 1024.71 1025.02 1025.32 1025.55 1025.88 1026.08 1026.15 1026.29
1018.55 1019.22 1019.88 1020.62 1021.18 1021.58 1022.11 1022.62 1023.00 1023.51 1024.05 1024.53 1024.91 1024.93 1025.06 1025.42 1025.77 1025.97 1026.19 1026.39 1026.41 1026.48
1019.03 1019.67 1020.39 1021.14 1021.72 1022.14 1022.53 1023.08 1023.62 1024.03 1024.53 1024.99 1025.18 1025.33 1025.61 1025.82 1026.09 1026.29 1026.47 1026.59 1026.61 1026.61
1019.54 1020.18 1020.93 1021.64 1022.14 1022.66 1023.14 1023.61 1024.19 1024.70 1025.07 1025.32 1025.49 1025.68 1025.90 1026.13 1026.35 1026.53 1026.68 1026.72 1026.70 1026.71
1020.13 1020.90 1021.55 1022.25 1022.62 1023.20 1023.73 1024.20 1024.74 1025.14 1025.50 1025.65 1025.64 1025.69 1025.99 1026.21 1026.43 1026.58 1026.66 1026.68 1026.70 1026.60
1020.53 1021.20 1021.91 1023.11 1023.13 1023.66 1024.36 1024.72 1025.17 1025.68 1025.80 1025.86 1025.81 1025.76 1025.81 1026.11 1026.41 1026.56 1026.64 1026.64 1026.59 1026.55
1021.23 1021.11 1022.53 1023.52 1023.64 1024.38 1024.77 1025.08 1025.64 1025.91 1025.94 1026.03 1025.98 1025.93 1025.93 1026.02 1026.43 1026.49 1026.58 1026.65 1026.71 1026.49
1021.06 1021.81 1023.34 1023.89 1024.20 1024.66 1024.95 1025.31 1025.75 1025.98 1026.13 1026.23 1026.32 1026.10 1026.05 1026.20 1026.49 1026.65 1026.66 1026.72 1026.71 1026.50
1021.64 1022.77 1023.78 1024.03 1024.39 1024.90 1025.12 1025.50 1025.81 1026.05 1026.25 1026.39 1026.51 1026.29 1026.17 1026.27 1026.47 1026.52 1026.48 1026.42 1026.34 1026.11
1022.47 1023.19 1023.83 1024.25 1024.56 1025.02 1025.31 1025.62 1025.95 1026.21 1026.40 1026.44 1026.56 1026.51 1026.29 1026.20 1026.27 1026.21 1026.14 1026.09 1025.96 1025.83
1022.88 1023.36 1024.14 1024.45 1024.78 1025.13 1025.46 1025.76 1026.09 1026.23 1026.44 1026.59 1026.65 1026.64 1026.26 1026.04 1025.92 1025.90 1025.81 1025.76 1025.58 1025.40
Wind_Speed
10 6 6 8 7 6 5 5 7 6 5 6 5 5 4 4 3 4 3 4 2 1
9 9 8 8 7 5 6 5 7 7 7 6 5 5 5 4 4 4 4 4 3 2
9 9 9 8 9 8 7 8 9 8 8 7 6 6 6 5 5 6 4 4 4 4
9 10 9 9 9 9 9 9 9 9 9 8 8 7 8 8 7 8 6 5 5 5
11 11 11 11 10 10 11 10 11 10 10 9 8 8 9 8 6 7 6 5 5 5
12 12 12 12 11 11 11 11 11 10 10 9 8 9 8 7 6 5 5 4 4 4
12 12 12 12 12 11 11 12 10 9 9 8 8 7 6 6 5 4 4 3 3 4
12 12 12 11 11 11 10 10 9 9 8 7 6 5 5 5 4 4 4 4 4 4
13 12 12 10 10 11 10 9 9 8 7 6 4 8 8 6 3 3 3 4 5 5
12 13 11 9 10 9 9 8 8 7 6 6 4 7 7 7 3 3 3 4 4 5
12 13 9 9 9 8 6 7 6 6 6 5 4 7 6 7 4 3 3 3 4 5
12 11 9 9 8 6 6 6 5 4 4 4 3 6 5 4 2 3 4 4 5 5
9 9 9 8 8 4 5 5 4 4 4 4 3 4 6 5 2 4 4 5 5 8
8 9 8 7 5 5 5 5 4 4 3 3 2 3 7 8 3 3 4 4 5 5
Wind_Direction
147 148 150 157 153 156 156 148 151 137 135 129 130 125 122 110 104 104 95 94 89 82
143 144 147 143 141 139 134 130 133 133 125 118 115 119 117 103 99 95 84 80 74 65
139 133 131 133 134 130 119 118 121 118 113 106 102 106 106 97 85 92 76 70 75 69
127 125 122 120 121 117 114 118 114 113 108 101 98 99 97 88 86 88 84 68 67 59
119 117 115 114 113 114 110 105 109 105 101 97 95 90 90 90 83 82 76 65 59 45
118 116 114 113 110 106 105 101 98 101 100 99 93 91 86 88 85 81 77 64 45 17
116 115 113 112 107 103 103 103 98 95 98 96 93 89 89 85 78 66 52 33 14 356
112 110 109 106 105 102 98 99 99 97 89 91 84 90 93 83 70 52 30 20 8 355
116 113 108 110 105 99 100 97 97 96 97 86 75 69 61 81 65 51 33 9 4 356
121 108 108 112 104 107 107 107 100 94 88 80 61 50 42 53 59 53 46 16 348 337
111 107 115 113 112 110 104 102 100 87 78 73 43 32 33 66 65 34 355 330 322 316
115 119 126 117 114 111 107 98 92 85 73 61 41 19 21 47 46 341 325 321 321 312
120 121 116 118 110 99 99 100 90 83 64 34 32 9 360 349 349 328 320 317 312 308
112 111 118 112 109 113 104 96 80 66 44 54 21 343 334 333 321 296 297 303 310 306